Regional Weather Roundup
Issued by NWS Green Bay, WI

Home | Current Version | Previous Version | Graphics & Text | Print | Product List | Glossary Off
Versions: 1 2 3 4 5 6 7 8 9 10 11 12 13 14 15 16 17 18 19 20 21 22 23 24 25 26 27 28 29 30 31 32 33 34 35 36 37 38 39 40 41 42 43 44 45 46 47 48 49 50

270
ASUS43 KGRB 101911
RWRGRB

NORTH-CENTRAL AND NORTHEAST WISCONSIN REGIONAL WEATHER ROUNDUP
NATIONAL WEATHER SERVICE GREEN BAY WI
100 PM CST SAT DEC 10 2016

WIZ005-009-010>012-018-019-102000-
NORTH CENTRAL WISCONSIN

CITY           SKY/WX    TMP DP  RH WIND       PRES   REMARKS
IRONWOOD       PTSUNNY   11   1  64 W6        30.34F WCI   1
MANITOWISH WTR MOSUNNY    6  -3  67 CALM      30.30F
ARBOR VITAE    SUNNY     11   2  65 CALM      30.30F
EAGLE RIVER    SUNNY      9  -4  55 CALM      30.29F
LAND O LAKES   PTSUNNY   11  -1  60 NW6       30.29F WCI   1
RHINELANDER    SUNNY     11  -1  58 CALM      30.30F
PHILLIPS       CLOUDY     8  -2  62 CALM      30.31F
ANTIGO         SUNNY     10  -1  59 W5        30.32F WCI   2
TOMAHAWK       SUNNY     10  -2  56 CALM      30.32F
MERRILL        MOSUNNY   11  -1  59 W3        30.35F
$$

WIZ013-073-102000-
NORTHEAST WISCONSIN

CITY           SKY/WX    TMP DP  RH WIND       PRES   REMARKS
IRON MOUNTAIN  MOSUNNY   16  -1  47 W10       30.31F WCI   4
MARINETTE      SUNNY     18   1  47 VRB7      30.38F WCI   9
OCONTO         SUNNY     17   3  55 W7        30.39F WCI   8
$$

WIZ017-030-035>037-045-102000-
CENTRAL WISCONSIN

CITY           SKY/WX    TMP DP  RH WIND       PRES   REMARKS
MEDFORD        CLOUDY    10  -1  61 CALM      30.32F
WAUSAU         SUNNY     12   1  61 N5        30.34F WCI   4
MOSINEE        PTSUNNY   12   3  67 W6        30.36F WCI   3
MARSHFIELD     CLOUDY    11   1  64 W5        30.34F WCI   3
WISC RAPIDS    PTSUNNY   15   5  64 NW6       30.38F WCI   6
STEVENS POINT  SUNNY     13   2  61 SW6       30.37F WCI   4
WAUPACA        CLOUDY    20   4  49 CALM      30.39F
SHAWANO        MOSUNNY   19   4  51 NW6       30.39F
CLINTONVILLE   CLOUDY    18   5  57 NW9       30.39S WCI   6
WAUTOMA        CLOUDY    16   6  65 W8        30.39F WCI   5
$$

WIZ038-039-048-051-102000-
FOX VALLEY

CITY           SKY/WX    TMP DP  RH WIND       PRES   REMARKS
NWS GREEN BAY  PTSUNNY   22   8  55 W10       30.39F
APPLETON       PTSUNNY   18   1  49 W7        30.37F WCI   8
OSHKOSH        MOSUNNY   17   6  62 W7        30.39F WCI   8
FOND DU LAC    MOSUNNY   18   6  59 W9        30.40F WCI   7
$$

WIZ022-050-052-102000-
EAST CENTRAL WISCONSIN

CITY           SKY/WX    TMP DP  RH WIND       PRES   REMARKS
EPHRAIM        FAIR      19   3  51 W10       30.35S WCI   7
WASHINGTON ISL FAIR      20   6  53 NW7       30.34F
STURGEON BAY   PTSUNNY   17   5  59 W10       30.38F WCI   5
MANITOWOC      SUNNY     21   5  50 MISG      30.39F
SHEBOYGAN      SUNNY     20   7  57 W12       30.39F WCI   8
$$

LMZ563-521-522-541>543-102000-
LAKESHORE

STATION/POSITION TIME  TEMP    WIND        PRES    VSBY  WAVE
                       AIR SEA DIR/SP/G                  HT/PER
                 (UTC) (F)     (DEG/KT/KT) (MB)    (MI)  (FT/S)
SHEBOYGAN LKSHOR 1900   19     290/ 11/ 13 1030.5F
KEWAUNEE LKSHORE 1848   18     300/  8/ 14 1028.3F
NORTHPORT PIER   1858   21     290/  7/ 15 1027.8F
SISTER BAY LKSHO 1750   24     310/ 15/ 19   N/A
CHAMBERS ISLAND  1840   21     270/  7/ 13 1027.8F
MENOMINEE LKSHOR 1848   18     250/  7/ 11 1027.7F
$$




USA.gov is the U.S. government's official web portal to all federal, state and local government web resources and services.